Regional Weather Roundup
Issued by NWS Newport/Morehead, NC

Current Version | Previous Version | Graphics & Text | Print | Product List | Glossary Off
Versions: 1 2 3 4 5 6 7 8 9 10 11 12 13 14 15 16 17 18 19 20 21 22 23 24 25 26 27 28 29 30 31 32 33 34 35 36 37 38 39 40 41 42 43 44 45 46 47 48 49 50

000
ASUS42 KMHX 242025
RWRMHX
WEATHER ROUNDUP FOR EASTERN NORTH CAROLINA
NATIONAL WEATHER SERVICE NEWPORT/MOREHEAD CITY NC
400 PM EDT SAT JUN 24 2017

NOTE: "FAIR" INDICATES FEW OR NO CLOUDS BELOW 12,000 FEET
WITH NO SIGNIFICANT WEATHER AND/OR OBSTRUCTIONS TO VISIBILITY

NCZ015>017-031-032-045>047-102-103-242100-
NORTH COAST

CITY           SKY/WX    TMP DP  RH WIND       PRES   REMARKS
EDENTON        SUNNY     91  71  51 CALM      29.91F
ELIZABETH CITY SUNNY     89  72  56 SW10      29.90F
KITTY HAWK     CLEAR     88  68  52 CALM      29.91S
MANTEO         MOSUNNY   88  72  59 N8        29.92S

$$

NCZ045>047-081-094-103-104-242100-
CENTRAL COAST

CITY           SKY/WX    TMP DP  RH WIND       PRES   REMARKS
FRISCO         SUNNY     84  76  76 SW12G21   29.94F

$$

NCZ095-097-098-100-101-242100-
SOUTHERN COAST

CITY           SKY/WX    TMP DP  RH WIND       PRES   REMARKS
BEAUFORT       SUNNY     85  79  82 SW23G31   29.93F
CEDAR ISLAND   NOT AVBL
JACKSONVILLE   PTSUNNY   89  78  70 S12G17    29.91F HX 103
PINEY ISLAND   CLEAR    N/A N/A N/A SW21G26   29.91F
WILMINGTON     SUNNY     90  74  59 SW17G25   29.94F


$$

NCZ011>013-027>030-043-044-078>080-089-090>093-098-242100-
COASTAL PLAIN

CITY           SKY/WX    TMP DP  RH WIND       PRES   REMARKS
AHOSKIE          N/A     87  71  59 CALM      29.91F
CLINTON        LGT RAIN  80  77  91 NW6G20    29.93R
ELIZABETHTOWN  NOT AVBL
GOLDSBORO      TSTM      77  77 100 CALM      29.89F
GREENVILLE     PTSUNNY   91  72  52 W6        29.93S
HAVELOCK       MOSUNNY   90  75  61 SW18G29   29.91F THUNDER HX 100
KENANSVILLE    CLOUDY    88  73  62 SW5       29.91F
KINSTON        CLOUDY    88  73  62 SW9       29.91F
NEW BERN       CLOUDY    84  76  76 W5        29.92F
RICHLANDS      PTSUNNY   92  76  59 S13G18    29.92F HX 104
ROCKY MOUNT    CLOUDY    90  73  57 VRB5      29.91F
WASHINGTON     CLOUDY   N/A N/A N/A SW7       29.90F
WHITEVILLE     PTSUNNY   91  73  56 S10       29.92F

$$

AMZ130-135-150-152-154-156-158-170-250-252-270-ANZ085-086-088-633-658-670-242100-
MARINE OBSERVATIONS

STATION/POSITION TIME  TEMP    WIND        PRES    WAVE   SWELL
                       AIR SEA DIR/SP/G            HT/PER HT/PER
                 (UTC) (F)     (DEG/KT/KT) (MB)    (FT/S) (FT/S)
CHESAPEAKE LIGHT NOT AVBL
64 E VA BEACH    1950   76 74  210/  4/  4 1013.5    6/ 7   7/ 7
DUCK             2000   87 59  260/ 10/ 12 1012.4
2 E DUCK         NOT AVBL
OREGON INLET     2000   83 83  190/ 19/ 22 1012.9
13E OREGON INLT  1948      74                N/A     4/ 7   2/ 7
HATTERAS CG      2000   82 79  220/ 12/ 19 1013.6
DIAMOND BUOY     1950   81 80  230/ 19/ 23 1013.9    7/ 8   2/15
CAPE LOOKOUT     2000   82     210/ 15/ 19 1013.5
BEAUFORT LAB     2000   83 80  210/ 14/ 19 1012.8
30 SE NEW RVR IN 2008   80 80  220/ 17/ 25 1014.6
30 SE NEW RVR IN 2013      80                N/A     6/ 6
27 SE WRIGHTSVLE 2008   79 80  210/ 17/ 23 1014.8
5 SE WRIGHTSVLE  2008   81 79  200/ 14/ 21 1014.6
225 S CAPE HAT   1950   81 81  210/ 14/ 16 1019.3    4/ 5   2/ 9
41 SE CHARLESTON 2010   81 81  210/ 14/ 17 1016.4

$$




USA.gov is the U.S. government's official web portal to all federal, state and local government web resources and services.